Powrót do katalogu

OSCAR 25

AktywnyKrótkofalarstwoPO
NORAD 19419·PAYLOAD·🇺🇸 United States

Wystrzelony Aug 25, 1988 z Vandenberg Space Force Base

Loading…

Następne Przeloty (najbliższe 24 godziny)

TLE

ŚwieżeSource: Space-Track

Epoka: Sep 14, 2026, 07:51 UTC

1 19419U 88074A   26257.32728641  .00000075  00000-0  11303-3 0  9999
2 19419  90.0488  21.3262 0096384 178.9087 209.6451 13.42669720863386

Śledź OSCAR 25 w czasie rzeczywistym z AllMySat

Download on the App Store